Retour au catalogue

STARLINK-35879

ActifCommunicationsVLEO
NORAD 66960·PAYLOAD·🇺🇸 United States

Lancé Dec 8, 2025 depuis Cape Canaveral Space Force Station

Loading…

Prochains Passages (prochaines 24 heures)

TLE

FraisSource: CelesTrak SupGP

Époque: Sep 14, 2026, 23:23 UTC

1 66960C 25288B   26257.97479167  .00011161  00000+0  40459-3 0  2575
2 66960  43.0040  34.5519 0001448 268.2043 148.4367 15.27545610    19

Suivez STARLINK-35879 en temps réel avec AllMySat

Download on the App Store